Погода в Большом Мокром

Россия / Нижегородская область     56°07′40″N   44°04′40″E
темп.,
°C
ветер,
м/с
пор.,
м/с
влажн.,
%
обл.,
%
осадки,
мм/ч
давл.,
гПа
погр.,
м
10 мая, пн
пн1000:00+7сз5994100 0.0 1014434
03:00+7ссз5993100 0.0 1017506
06:00+6ссз4991100 0.1 1019495
09:00+6ссз4991100 0.3 1021532
12:00+6с4994100 1.0 1024456
15:00+7с4993100 1.1 1025433
18:00+9ссв478795 0.0 1026510
21:00+8ссв489280 0.0 1027389
11 мая, вт
вт1100:00+6ссв3109594 0.0 1027292
03:00+5ссв3109586 0.0 1028276
06:00+7св410905 0.0 1028289
09:00+13св57715 0.0 1028503
12:00+18св46583 0.0 1028838
15:00+21всв45530 0.0 10271149
18:00+20св376433 0.0 1027532
21:00+15всв268368 0.1 1028135
12 мая, ср
ср1200:00+13всв3888100 0.0 1029186
03:00+12всв3109217 0.0 1028220
06:00+13всв3108888 0.0 1028281
09:00+19в586799 0.0 1027558
12:00+23вюв694925 0.0 10271788
15:00+24вюв584534 0.0 10262623
18:00+21юв376115 0.1 1026952
21:00+16вюв26757 0.2 1026152
13 мая, чт
чт1300:00+15вюв397875 0.0 1026221
03:00+14вюв257676 0.0 1026112
06:00+15вюв3107168 0.0 1026288
09:00+17вюв4106534 0.0 1025427
12:00+22юв69478 0.0 10241005
15:00+22юв61049100 0.0 10231154
18:00+18ююв51270100 0.0 1023511
21:00+16вюв2107298 0.0 1022266
14 мая, пт
пт1400:00+15юв268131 0.1 1023161
03:00+15вюв2285100 0.3 102227
06:00+15юв2584100 0.0 1022143
09:00+20ююв486037 0.0 1022532
12:00+23ююв694832 0.0 1021875
15:00+25ююв6848100 0.0 10201352
18:00+23ююв48605 0.0 1019901
21:00+18ююв377753 0.0 1019162